Location: Arrakis Observatory
(44.1122°N, 95.7153°W)
Time: 21:55:05
(UTC-05:00)

Iridium 35 - Visible Passes

Search period start: 26 August 2016 00:00
Search period end: 05 September 2016 00:00
Orbit: 776 x 779 km, 86.4° (Epoch: 26 August)

Date Brightness Start Highest point End Pass type
(mag) Time Alt. Az. Time Alt. Az. Time Alt. Az.
26 Aug 7.2 21:00:52 10° NNW 21:05:22 30° W 21:09:52 10° SW visible
28 Aug 8.3 21:36:31 10° NW 21:38:28 12° WNW 21:40:23 10° W visible
29 Aug 7.8 21:01:25 10° NNW 21:05:18 22° W 21:09:12 10° SW visible
30 Aug 6.8 20:27:15 10° NNW 20:32:02 38° W 20:36:48 10° SSW visible
01 Sep 8.2 21:02:15 10° NW 21:05:13 15° WNW 21:08:09 10° WSW visible
02 Sep 7.6 20:27:41 10° NNW 20:32:00 27° W 20:36:19 10° SW visible
04 Sep 8.7 21:04:07 10° WNW 21:05:03 10° WNW 21:06:00 10° W visible
